Wind_Speed
20 21 21 18 16 14 9 4 2 2 3 1 3 4 3 4 1 3 5 3 2 4 4 4 5 5 3 3 5 10 9 6 3 1 1 6 14 13 13 17 18 17 14 12 12 11 11 11 10 11 11 11 11 11 11 11 10 10 10 11 10 11 13 12 12 12 12 13 14 13 13 13 14 14 14 13 13 13 13 13 13 14 14 14 14 15 15 15 15 15 15 15 15 16 16 15 15
20 23 20 18 15 8 3 1 1 3 3 1 4 3 4 3 1 4 6 6 5 4 3 4 4 3 2 2 1 6 8 9 7 4 5 12 12 11 14 15 16 16 14 12 12 12 10 10 10 10 11 11 11 10 10 10 9 9 10 11 11 11 12 12 12 12 12 13 12 12 12 13 14 14 14 13 13 13 13 13 13 13 13 13 13 14 15 15 15 14 14 15 15 15 15 15 14
21 23 19 16 12 4 2 2 2 4 3 3 4 2 4 3 3 8 9 8 7 4 4 3 2 2 3 2 1 4 6 8 10 7 6 13 11 11 16 15 17 15 13 13 12 11 10 10 10 10 10 9 10 9 9 8 8 10 10 11 11 10 11 11 12 12 12 11 11 13 12 12 15 14 13 13 13 13 13 13 13 13 13 13 13 13 14 14 13 14 14 14 14 14 15 15 14
22 22 17 11 6 2 3 2 3 4 3 2 3 2 3 4 7 9 8 7 5 3 2 0 1 1 4 4 3 5 6 6 10 10 6 12 13 15 17 16 17 14 14 15 13 11 10 10 11 10 10 9 9 8 8 8 9 9 10 11 10 9 9 11 12 12 13 11 11 13 13 13 13 12 12 12 12 12 12 12 12 12 12 12 12 12 12 12 12 13 13 13 13 13 14 14 13
21 20 16 8 2 2 2 2 4 2 3 2 3 3 3 6 8 8 6 6 4 3 2 2 1 1 1 3 3 3 3 5 10 12 10 13 18 19 18 17 17 15 15 15 14 12 10 11 10 10 9 9 9 9 8 7 9 8 10 10 9 8 7 10 12 12 13 11 11 13 13 13 12 11 11 11 12 12 12 12 12 12 12 12 11 11 12 12 12 12 12 12 12 12 13 12 12
19 19 15 7 1 1 1 3 4 1 3 4 4 3 4 6 8 8 6 6 4 4 3 3 1 2 1 4 6 5 3 4 9 10 13 17 21 20 19 18 15 15 15 14 14 12 11 11 10 9 8 8 10 11 10 8 9 8 9 9 7 8 8 10 11 12 13 11 10 12 12 12 11 11 11 11 11 11 11 11 11 11 11 11 11 11 11 11 11 11 11 11 11 11 11 11 10
16 13 8 4 1 1 2 4 4 2 4 5 4 3 5 6 7 8 5 5 3 3 1 2 3 3 1 4 5 7 9 8 9 11 16 19 22 20 19 17 15 15 15 15 13 11 10 10 10 8 8 8 9 12 10 10 9 8 9 8 8 9 10 10 9 10 12 11 10 10 8 9 10 11 11 11 11 11 10 10 10 10 10 11 10 11 11 10 10 10 10 10 10 10 10 10 9
15 6 2 3 2 2 3 5 3 4 3 4 6 4 6 7 6 6 5 4 3 3 3 1 1 1 1 3 4 6 12 13 14 17 19 19 20 19 18 16 15 15 14 15 13 11 10 11 10 8 8 8 9 11 10 9 10 9 9 8 8 8 8 9 8 9 10 11 10 7 6 8 11 11 10 11 11 10 10 9 10 10 10 10 10 10 10 10 9 9 9 9 10 10 9 9 9
12 4 2 2 3 3 3 5 2 4 4 4 5 4 5 6 4 6 5 3 3 3 4 2 2 2 2 4 7 6 10 14 17 19 19 19 19 18 15 14 16 14 13 14 12 10 11 11 11 8 8 8 9 10 9 9 9 10 9 8 7 6 7 8 8 8 8 9 9 7 6 9 11 11 10 10 10 10 9 9 9 9 9 9 9 9 9 9 9 8 7 7 8 8 8 8 7
7 2 1 2 3 4 4 4 1 4 6 5 5 4 4 4 2 4 5 5 4 3 5 3 3 1 4 5 7 5 10 14 18 18 17 18 17 15 14 13 14 14 13 12 10 9 10 11 10 9 9 9 11 9 9 9 9 10 11 9 6 7 9 9 8 7 7 6 8 8 7 10 11 10 9 10 10 9 9 8 9 8 8 8 8 8 8 8 8 7 7 6 6 6 7 6 6
3 1 1 1 3 4 4 3 1 3 6 6 5 5 4 4 2 1 3 5 4 2 5 2 1 2 3 5 4 5 13 14 18 18 17 18 16 14 13 12 13 14 13 10 9 8 8 11 10 9 9 10 11 9 10 10 10 12 12 10 8 9 11 10 9 8 7 7 8 8 7 9 10 9 8 9 9 8 8 8 8 8 8 8 7 7 7 7 7 6 6 5 5 5 5 5 5
1 3 1 2 3 4 4 4 1 4 6 5 5 5 3 4 3 2 3 4 4 3 4 4 1 0 2 2 3 8 14 14 18 18 17 17 14 13 12 12 12 12 12 10 10 8 7 10 10 9 10 11 11 9 10 12 10 12 14 12 10 9 10 11 10 8 8 9 9 9 8 8 8 8 8 8 8 8 8 9 8 7 7 7 7 7 6 6 6 5 4 4 5 4 4 4 4
2 3 2 3 4 4 5 5 2 5 4 4 6 5 4 4 4 4 3 3 5 4 4 4 3 1 1 3 5 8 10 14 18 18 18 16 14 12 11 11 11 12 11 10 10 9 7 9 10 9 9 11 11 10 9 11 11 12 14 14 11 10 11 11 9 9 8 9 10 9 8 7 7 7 7 7 8 8 8 8 7 7 7 6 6 7 6 6 5 5 3 3 4 3 3 3 3
2 3 2 3 3 5 4 4 3 1 2 4 8 6 5 4 3 2 3 4 4 2 2 3 3 2 1 4 5 4 8 15 18 18 17 15 14 13 11 11 11 12 11 10 10 10 9 8 9 9 9 10 11 11 10 10 12 12 13 15 13 11 12 11 9 9 9 9 9 9 9 7 7 7 7 8 7 6 7 6 6 7 6 5 6 7 6 6 5 4 3 2 3 3 3 2 3
2 3 2 2 4 5 3 2 3 2 1 6 8 7 6 2 1 2 1 3 4 3 4 3 2 0 1 3 4 5 11 17 18 18 17 16 15 12 11 13 12 11 10 10 10 11 10 9 10 9 8 9 9 10 10 10 11 12 12 14 14 12 12 13 11 10 9 8 8 8 8 7 7 7 8 8 7 6 6 5 5 6 5 5 6 7 7 7 5 4 4 3 3 4 3 2 2
1 3 2 2 4 5 2 2 1 1 2 5 6 7 7 3 1 1 2 2 3 3 2 2 0 0 3 5 7 11 16 17 17 17 16 16 15 11 9 12 11 9 9 10 11 11 11 11 12 10 7 9 9 8 9 10 11 11 11 13 14 13 13 13 13 12 10 9 9 9 8 8 7 7 8 8 7 7 6 6 6 6 5 5 5 7 7 7 6 5 5 5 4 4 3 2 2
0 1 3 3 4 5 3 2 2 2 3 4 5 6 6 5 1 0 1 1 2 3 2 3 2 1 4 8 13 18 19 18 18 17 16 16 15 12 9 11 12 11 11 11 13 13 12 12 12 11 8 9 10 8 8 9 10 11 11 12 13 13 13 13 13 13 12 11 10 10 9 9 9 8 8 8 8 8 7 7 7 7 6 5 5 5 6 6 7 6 6 5 4 4 3 3 2
1 2 3 4 4 4 3 5 2 4 5 5 5 6 5 6 5 1 2 2 1 4 3 4 3 4 10 13 17 20 20 19 19 18 17 16 14 13 13 13 14 15 15 14 14 14 14 14 13 14 11 11 11 10 11 10 9 9 10 12 13 13 13 13 13 13 12 12 12 12 11 9 8 8 8 9 9 9 9 9 9 9 8 7 5 5 5 5 6 6 6 5 5 4 4 3 2
2 3 3 5 5 2 4 7 3 5 4 7 5 4 3 5 7 3 3 5 5 4 4 5 5 6 11 13 16 19 19 19 20 19 17 16 15 14 15 16 16 17 17 17 16 16 16 16 16 15 14 13 14 13 12 12 10 10 10 11 14 15 15 14 13 13 13 13 13 13 12 9 8 9 10 11 11 11 11 10 10 10 9 8 6 6 5 5 6 6 5 4 5 6 4 4 4
3 3 4 4 3 4 4 6 5 7 4 4 6 2 0 3 5 3 3 5 7 7 5 6 7 8 10 10 15 18 17 18 19 18 18 17 16 16 16 16 17 17 18 19 17 17 18 18 18 17 16 15 16 16 14 13 12 12 11 11 13 15 15 15 15 14 14 14 14 15 14 11 11 12 13 13 13 12 11 11 12 11 10 9 7 7 6 6 7 7 7 6 6 7 5 4 6
3 4 5 4 3 4 3 5 6 6 6 3 5 3 1 3 4 3 3 4 4 6 6 7 7 9 13 11 13 17 16 16 17 16 17 17 17 16 16 16 17 17 16 18 18 18 19 18 18 19 18 16 17 18 15 14 13 12 11 12 13 13 14 14 15 16 14 14 14 15 14 13 13 15 15 15 15 14 13 12 12 12 11 11 9 8 8 8 7 9 9 9 8 8 8 6 7
3 5 7 7 3 2 3 5 6 5 4 4 3 1 2 4 3 3 4 4 2 1 1 5 3 2 11 14 13 14 14 14 15 15 16 17 17 16 16 16 16 17 16 17 18 18 19 19 19 18 19 18 18 19 17 15 15 14 13 13 15 14 13 13 14 15 15 15 15 14 14 14 15 16 16 15 15 15 15 13 12 12 12 12 10 10 9 8 7 8 10 10 9 9 9 8 9
5 5 6 8 5 4 2 4 3 3 3 3 0 2 2 3 3 5 6 6 2 5 6 7 7 8 11 16 12 11 11 11 14 16 17 17 18 17 16 16 17 18 18 18 18 18 19 20 20 19 19 19 19 19 18 17 17 17 16 16 17 15 14 15 14 13 15 17 16 15 15 15 15 16 16 15 14 14 14 14 12 10 11 11 11 10 10 11 9 9 10 10 10 10 10 11 12
8 6 6 8 8 7 1 4 1 2 3 2 2 4 2 3 4 3 7 8 5 3 7 7 7 8 10 12 10 9 10 12 15 18 19 19 19 19 18 17 16 18 19 18 18 18 19 20 21 21 20 20 20 19 19 18 18 18 18 17 18 17 16 17 16 15 16 16 16 16 17 17 15 15 15 15 14 12 14 15 12 11 11 12 13 11 11 14 14 12 12 11 10 12 13 15 15
9 7 6 8 7 6 3 5 3 2 2 2 2 3 4 5 1 1 4 5 5 3 6 7 6 7 6 7 9 9 9 12 15 17 19 19 19 19 18 17 16 17 19 20 19 19 20 21 22 23 22 22 22 21 20 20 19 19 20 19 19 19 18 17 17 17 17 17 17 17 18 17 16 15 14 14 14 12 14 15 14 14 14 15 16 15 13 14 15 15 14 13 13 14 17 17 15
7 8 7 10 8 5 5 5 5 4 3 1 2 4 6 3 3 1 6 7 6 5 5 7 6 6 5 6 7 8 7 10 13 16 18 19 18 18 19 19 17 18 19 20 21 21 21 22 23 24 24 24 23 23 22 21 20 20 21 22 21 21 22 20 17 17 17 17 18 18 17 17 17 16 14 14 15 14 14 15 15 15 16 16 16 16 15 15 16 16 15 15 16 17 18 16 14
6 8 8 12 11 6 6 7 7 5 4 4 4 6 7 1 3 4 7 8 9 8 5 6 6 6 6 6 7 8 8 10 14 15 15 16 17 18 20 21 21 19 19 20 23 23 22 23 24 25 25 26 25 25 25 24 23 22 21 22 22 22 23 24 21 18 17 18 18 18 18 18 17 16 16 15 15 16 15 15 16 16 17 16 15 16 17 19 18 16 15 16 18 18 16 15 15
11 9 7 10 12 9 8 7 7 5 4 6 5 6 7 2 4 6 5 4 3 5 6 6 6 6 7 7 7 7 8 11 15 15 14 16 18 19 20 23 24 22 21 22 23 23 23 23 25 26 26 27 27 26 26 26 25 24 22 22 23 23 23 25 24 22 20 20 19 18 18 19 19 17 17 17 16 17 17 17 17 17 18 18 17 17 18 18 16 15 16 17 17 17 15 16 16
11 10 8 9 11 12 10 7 7 6 5 6 4 4 7 8 9 7 6 5 2 4 6 6 7 6 6 7 6 6 8 12 14 15 17 18 20 21 21 23 25 24 24 24 23 23 24 25 25 26 27 27 28 28 27 27 26 25 24 24 24 23 23 24 26 25 24 23 22 21 19 18 20 19 19 18 18 18 17 18 19 19 20 19 18 19 19 17 17 18 19 19 18 17 17 17 17
7 9 9 7 8 10 8 6 7 8 6 6 4 2 6 9 13 10 10 11 9 8 8 6 6 6 6 6 6 6 9 11 12 15 19 19 19 21 22 22 24 25 25 24 24 25 26 26 26 26 27 27 28 28 27 27 27 26 25 25 25 24 24 25 25 25 25 24 24 25 24 22 21 20 21 21 20 20 19 20 20 20 20 19 19 19 19 19 20 21 20 20 21 20 20 19 19
5 8 7 5 6 7 7 9 10 9 7 9 6 4 6 7 9 10 11 13 12 9 8 8 7 6 6 6 7 6 8 11 13 16 19 20 20 21 22 22 23 25 25 25 27 27 27 27 27 27 28 28 28 29 29 28 28 27 27 26 25 25 25 26 24 24 25 25 25 26 28 27 26 24 23 23 23 23 23 22 22 21 20 19 20 19 20 22 24 24 21 21 22 22 23 21 21
5 7 6 6 6 6 8 10 13 11 6 10 8 4 6 8 9 10 7 9 11 9 8 8 7 7 7 6 7 7 7 12 17 18 19 20 20 21 22 22 23 24 25 25 26 27 27 27 28 28 29 30 30 31 31 29 28 27 28 27 26 26 26 27 26 25 25 26 27 27 28 29 30 30 28 25 24 25 26 26 25 23 21 21 20 19 22 24 24 23 22 21 22 23 24 24 23
6 7 6 7 7 7 7 7 11 12 6 7 10 5 3 6 9 10 8 6 9 8 6 6 6 6 7 6 6 6 6 9 13 17 19 20 20 21 22 22 23 24 25 25 25 27 28 28 28 29 29 30 31 32 31 30 29 27 28 28 27 26 27 27 27 27 27 27 28 29 29 29 30 32 31 29 26 27 27 27 27 24 23 23 22 21 23 25 22 21 21 21 22 22 23 24 24
7 7 6 8 9 7 6 4 6 11 8 7 10 8 7 7 8 6 4 4 5 6 6 5 5 6 6 6 6 6 6 6 8 13 17 18 19 21 21 22 23 24 25 25 25 26 27 28 29 29 29 29 30 32 31 31 30 28 27 26 26 26 26 27 28 28 29 29 29 30 30 30 30 31 33 31 29 29 28 27 27 25 24 24 24 24 25 25 22 21 22 23 23 23 23 24 24
7 8 7 7 9 10 9 5 5 10 11 10 11 10 10 10 11 7 4 5 5 6 7 6 6 7 7 6 6 6 6 6 6 11 16 19 20 21 21 22 22 23 24 25 26 26 26 28 29 30 29 29 29 30 30 30 29 29 28 26 26 26 26 27 28 29 31 31 31 32 31 31 31 31 32 32 31 31 30 28 28 27 26 25 25 26 27 26 24 24 24 24 24 25 24 23 23
10 11 9 8 8 9 10 8 7 12 12 11 11 10 10 11 12 12 10 8 7 8 7 6 7 7 7 6 6 6 7 6 7 12 17 20 22 23 23 23 23 24 24 25 26 27 27 27 28 30 30 29 28 28 28 29 29 29 29 28 28 29 30 30 30 31 31 32 32 32 32 32 32 31 32 32 32 33 32 31 30 29 27 27 27 29 30 29 27 27 27 25 24 25 26 24 22
12 11 10 11 10 8 10 9 9 13 10 9 11 10 11 11 12 12 11 10 10 9 8 8 8 8 7 7 7 7 7 7 9 14 18 19 21 23 24 25 23 24 24 25 27 28 28 28 29 30 31 30 29 29 30 31 32 31 30 31 32 33 32 32 32 33 33 33 32 32 32 32 31 31 32 32 33 33 34 33 33 32 30 30 31 32 31 30 28 28 27 26 25 25 27 27 24
14 11 10 11 10 8 10 7 9 11 7 6 9 10 11 11 10 11 9 10 10 9 9 9 9 8 7 8 9 9 7 7 9 12 16 19 21 22 25 26 26 26 27 27 28 29 30 30 31 31 31 31 31 32 32 33 34 34 34 35 35 34 33 34 34 35 35 35 33 31 32 32 32 32 32 33 33 34 34 34 34 34 33 33 33 32 31 30 29 29 28 27 27 27 27 27 27
13 11 10 9 8 7 8 6 9 9 5 3 4 7 9 9 10 11 11 10 8 8 9 8 8 8 7 7 8 8 8 8 8 10 13 19 22 24 25 27 29 29 29 30 30 30 30 31 32 32 31 32 33 34 34 34 35 36 35 35 34 32 32 34 34 33 34 34 34 32 31 32 33 33 33 33 33 34 35 34 33 33 33 33 33 32 31 30 29 29 30 29 28 28 26 25 27
12 11 10 10 9 5 5 5 6 6 3 2 4 6 7 7 8 10 11 11 9 8 10 10 9 9 9 10 9 8 9 9 9 9 11 15 20 23 26 28 30 30 30 30 29 29 30 32 33 32 32 32 34 35 35 35 34 34 33 32 31 30 29 30 31 31 31 33 34 34 34 34 34 34 34 34 35 35 35 35 34 32 32 32 33 32 32 32 31 31 31 31 29 27 27 26 26
12 14 12 10 10 8 5 3 3 4 3 3 3 6 7 7 10 11 10 11 12 11 11 13 12 11 11 12 11 11 10 10 9 9 9 11 14 20 27 31 31 29 29 29 29 29 30 32 32 32 32 32 33 34 35 34 32 30 30 28 26 26 27 26 28 30 32 34 36 37 38 37 37 36 35 35 36 36 36 36 35 34 32 31 32 33 32 32 32 32 31 32 32 29 28 27 26
12 14 15 14 11 10 8 6 4 3 3 4 4 4 6 7 12 15 11 12 16 13 13 16 15 12 12 12 13 12 10 10 9 10 9 9 13 17 22 27 28 28 29 30 29 30 30 30 31 31 32 32 33 33 34 34 33 31 31 30 28 27 27 29 32 34 35 37 38 38 38 37 37 37 36 36 36 37 37 37 37 36 34 32 32 33 33 32 32 32 33 33 34 33 28 25 26
10 12 17 18 14 11 10 8 6 3 2 3 7 6 5 4 8 10 8 11 15 13 13 16 14 12 11 11 11 10 10 10 9 10 11 11 14 14 14 18 22 26 29 29 28 29 29 29 29 30 31 32 33 33 33 34 35 34 33 34 34 33 32 33 36 36 36 37 37 35 35 36 37 37 37 36 36 36 37 37 37 36 36 34 33 34 34 34 33 33 34 34 35 34 30 26 26
10 10 14 17 16 14 10 6 5 3 1 0 5 5 6 7 6 7 9 10 13 12 11 12 12 12 12 11 11 10 10 9 8 10 11 11 12 14 16 19 21 23 24 25 27 27 27 28 28 29 30 32 33 33 33 35 37 36 35 35 35 36 35 33 33 34 34 34 33 33 34 34 35 37 37 37 36 36 37 37 36 36 35 34 34 35 36 35 33 32 32 34 35 34 35 33 29
6 4 8 12 12 11 8 6 5 1 3 2 5 3 5 10 6 7 12 13 14 15 14 12 10 11 12 11 11 10 10 9 9 9 9 9 11 14 17 18 17 17 17 19 23 24 25 27 28 28 29 30 32 32 33 35 37 38 37 36 35 35 34 32 29 30 32 32 31 32 33 34 35 36 38 38 37 37 37 38 37 36 36 35 35 35 35 34 34 33 32 34 35 36 37 36 33
4 9 6 5 6 7 6 6 2 2 1 6 7 6 5 11 6 6 9 10 13 13 12 13 11 10 9 10 10 10 8 7 7 8 8 8 8 10 10 10 12 13 13 15 18 21 23 25 26 27 28 29 30 31 32 34 36 37 37 37 36 35 32 30 27 28 30 31 31 31 32 33 34 35 38 39 38 38 38 38 38 39 38 37 37 36 34 34 34 34 33 33 35 36 36 36 36
8 9 5 3 3 1 1 2 2 2 4 8 11 12 9 10 7 5 6 7 9 9 8 9 9 9 9 9 9 8 7 7 7 7 6 5 6 8 9 10 11 13 14 15 16 18 21 22 23 25 27 29 29 30 30 32 35 37 38 38 36 35 32 29 28 29 29 29 31 31 31 31 33 34 36 37 38 38 38 38 39 39 38 37 37 37 36 34 34 34 33 33 34 36 36 35 35
7 7 5 4 2 3 3 1 3 3 6 9 14 15 12 11 6 3 2 1 2 4 4 5 7 8 9 9 7 7 7 6 6 6 5 4 5 7 9 11 12 13 14 16 17 18 20 21 23 24 26 28 29 30 30 32 34 36 38 37 36 34 32 30 31 31 30 30 31 31 30 30 31 32 33 34 37 37 37 38 38 38 38 37 37 37 36 35 34 34 33 34 34 35 36 35 35
5 5 7 6 2 1 3 3 4 5 6 6 9 11 10 12 10 6 4 2 3 1 1 2 4 7 9 7 5 6 6 5 5 5 4 4 5 6 9 11 13 14 15 16 17 18 20 22 22 24 27 27 28 29 30 32 33 35 36 35 35 33 31 31 31 31 31 31 30 29 29 30 30 31 32 33 35 36 36 37 37 38 38 39 38 37 37 36 34 34 33 34 35 35 35 35 36
8 8 10 10 7 5 7 7 5 5 6 5 4 5 5 6 9 12 13 7 4 4 4 4 5 7 7 6 5 5 6 6 5 5 5 6 6 7 9 12 13 14 15 15 17 18 19 21 22 24 27 27 26 27 29 31 32 32 33 33 33 32 31 32 31 31 31 31 30 29 28 29 30 32 33 33 33 33 34 36 37 37 38 38 38 38 37 37 36 35 35 34 35 35 36 36 37
10 9 9 11 9 6 7 8 6 5 5 6 6 4 4 5 4 7 13 14 11 9 7 7 6 7 6 5 5 5 5 6 6 6 7 7 7 9 10 11 11 11 11 12 14 15 17 19 21 23 25 25 24 25 27 29 30 31 31 32 32 32 32 31 32 32 32 30 30 29 29 29 30 31 31 31 31 31 33 34 36 37 38 38 37 38 37 37 36 36 36 35 34 34 35 36 38
6 4 4 9 8 6 5 3 4 6 4 5 6 4 4 4 6 4 5 8 11 12 10 8 8 8 8 8 7 6 6 6 6 6 6 6 7 8 7 6 6 7 7 8 10 12 14 17 19 21 23 23 22 23 25 27 29 30 31 31 31 31 30 30 31 32 32 31 30 29 30 30 29 29 29 28 29 30 31 33 34 36 37 37 37 37 37 37 36 36 36 36 36 35 34 34 36
5 5 8 8 4 4 6 3 0 4 5 5 5 4 4 4 8 7 5 2 7 12 11 11 12 12 12 11 8 6 6 6 6 5 5 6 5 3 3 5 6 6 7 8 8 10 12 14 16 19 21 21 20 21 23 25 26 28 29 29 29 29 29 30 31 31 31 30 29 29 29 29 28 28 27 27 27 28 30 32 33 35 36 36 37 37 37 38 37 37 36 36 37 38 36 34 34
5 7 9 4 2 2 2 3 3 4 5 4 6 8 6 5 6 7 9 8 7 9 11 12 13 13 13 10 7 7 7 6 6 5 4 3 1 1 3 4 5 6 8 9 9 10 11 12 14 17 18 19 18 18 20 22 24 26 26 27 27 28 29 29 30 29 28 26 26 27 27 27 27 26 26 26 26 26 28 30 32 34 34 35 36 36 36 37 37 36 36 36 36 37 36 36 35
3 4 7 5 1 2 3 4 4 5 5 3 7 10 7 7 6 4 9 12 9 9 10 11 12 11 9 7 7 7 6 6 5 4 2 1 2 3 3 3 4 6 7 8 8 8 9 10 12 15 17 17 16 16 17 18 21 23 24 25 26 26 27 28 28 27 26 25 25 25 25 26 26 25 25 25 25 25 26 28 30 32 32 33 34 34 35 35 35 35 35 35 36 36 35 36 36
3 1 3 3 2 5 6 5 3 5 5 5 7 9 6 7 7 6 9 11 11 12 10 10 11 11 9 8 8 7 6 6 5 6 3 2 1 3 2 2 3 5 7 7 7 7 7 7 8 10 13 14 14 14 14 15 17 19 20 22 23 23 24 25 25 25 24 25 25 24 24 25 24 25 25 24 25 25 26 27 28 30 31 32 33 33 34 35 35 35 36 36 37 37 37 37 37
6 5 6 5 3 2 4 6 5 4 5 5 6 8 6 5 6 9 11 10 10 13 12 11 11 10 9 8 7 6 6 6 6 6 4 3 1 2 1 1 2 5 7 7 7 7 8 8 7 7 8 9 11 12 13 14 15 16 18 19 20 20 21 21 22 23 23 24 24 24 24 23 23 24 24 24 25 25 26 27 28 29 31 32 33 34 34 35 35 36 36 37 38 38 38 38 37
12 11 11 11 10 6 5 8 6 4 5 5 6 9 6 3 4 8 11 10 10 12 14 13 11 9 8 6 7 7 7 7 6 6 6 4 3 4 2 1 2 4 7 7 6 7 8 9 9 8 7 6 7 8 10 12 13 15 17 17 17 18 18 19 20 21 22 23 22 22 22 22 23 24 23 24 25 26 26 27 28 30 31 33 34 35 35 35 36 37 37 37 38 38 39 38 37
Wind_Direction
337 337 332 324 307 305 305 264 269 261 216 253 87 103 80 64 108 133 111 125 118 67 46 48 46 26 13 1 62 71 43 38 49 13 108 149 159 156 136 129 132 135 141 150 152 146 141 139 136 139 140 139 139 135 130 128 120 101 95 103 101 99 102 97 93 92 90 91 86 83 84 90 94 94 98 100 99 97 95 94 94 95 93 91 91 93 93 92 91 90 91 89 89 87 86 84 83
335 335 330 325 305 286 309 256 261 275 229 107 62 78 103 114 168 98 81 70 66 66 54 55 47 20 350 329 96 86 58 55 76 79 114 139 145 138 135 136 137 141 144 145 147 145 145 145 140 140 138 137 139 135 131 130 117 98 99 108 108 102 103 102 99 99 97 95 93 92 94 100 101 98 99 102 103 100 98 96 95 95 93 94 94 95 94 94 94 92 91 89 88 87 87 85 84
334 331 322 322 311 248 258 294 242 281 284 99 76 91 136 131 98 75 68 65 62 63 52 51 59 1 315 318 76 84 86 81 95 96 117 141 142 140 144 142 142 143 138 139 146 152 151 148 143 142 141 136 136 136 133 129 115 103 101 104 106 104 106 108 103 103 102 99 100 102 101 101 102 102 103 105 106 103 101 99 96 96 97 99 97 95 93 92 93 93 92 90 90 87 88 86 85
333 326 309 309 319 258 268 254 242 288 333 78 99 120 138 103 89 79 77 78 59 59 65 200 137 15 338 354 37 81 93 90 112 118 139 162 156 145 146 145 146 139 137 142 146 157 160 153 149 147 148 143 139 139 138 130 116 106 102 103 109 115 118 114 107 103 103 106 111 111 105 99 101 104 106 108 107 105 104 102 97 97 100 100 98 98 97 94 91 92 93 92 93 92 91 87 86
327 320 304 293 310 303 302 275 275 301 357 13 94 110 106 92 95 92 92 92 66 50 14 306 73 93 57 5 358 78 89 92 110 123 146 160 150 147 149 149 148 140 142 147 148 162 168 159 157 155 151 147 148 143 140 132 120 113 109 111 116 125 129 120 113 107 105 108 111 111 107 103 103 106 111 112 110 108 105 104 101 98 101 103 103 104 101 96 93 93 94 94 94 93 92 89 87
322 321 309 272 234 327 290 269 272 116 19 12 87 97 86 90 101 103 100 95 80 69 20 331 359 330 116 71 52 50 27 112 114 123 137 141 144 149 152 152 150 145 147 149 155 169 170 165 160 155 153 148 154 151 145 138 128 121 115 114 113 114 119 119 116 116 114 111 109 111 110 106 109 112 113 115 111 110 109 107 104 102 105 106 105 104 103 99 96 94 94 97 95 94 93 91 90
318 321 318 257 230 299 243 269 271 94 25 15 70 94 94 96 104 114 123 114 105 113 84 346 352 327 132 108 80 51 43 88 111 121 133 136 143 149 153 153 150 150 151 149 160 171 166 168 161 150 152 148 159 161 149 142 139 129 121 117 113 112 113 116 119 124 123 120 121 125 119 111 116 117 117 120 118 116 113 110 108 109 108 105 104 104 103 101 99 97 97 99 97 97 96 93 92
312 299 324 309 292 243 243 277 290 82 55 31 52 55 90 107 118 131 138 129 135 139 144 213 332 318 196 123 102 71 63 83 101 117 131 137 143 148 153 153 152 154 151 153 166 171 163 169 167 153 149 149 161 166 154 147 148 137 128 127 122 121 117 117 122 125 128 128 132 138 123 116 124 123 124 126 125 122 117 116 115 112 112 108 105 105 104 104 103 101 100 99 99 98 96 93 90
313 275 283 307 282 277 259 260 252 98 110 98 76 55 79 107 135 141 132 115 124 132 142 156 46 13 320 83 100 96 82 95 108 118 129 137 143 147 153 155 155 153 149 158 171 170 164 169 170 161 153 148 147 158 161 157 161 150 141 144 139 138 134 131 137 137 138 137 139 141 121 119 126 128 130 127 123 123 122 121 117 114 115 111 107 107 107 108 107 106 102 96 99 98 94 93 86
309 251 322 307 292 298 277 266 239 104 107 100 106 112 93 114 166 153 142 125 128 145 113 74 55 333 312 90 108 110 109 118 120 123 130 138 144 145 152 156 155 153 150 157 169 169 167 168 169 165 158 148 145 158 159 154 166 161 154 157 154 149 148 152 163 163 157 157 153 145 128 123 128 135 136 130 129 131 129 123 119 120 118 114 113 112 109 110 110 109 106 100 99 99 101 93 82
311 269 30 297 287 272 273 307 20 115 107 100 105 116 111 126 158 159 130 115 122 134 108 110 171 234 272 100 96 116 126 133 127 129 136 141 147 148 152 155 154 155 156 154 158 169 172 170 169 165 159 154 158 166 158 153 162 163 159 154 153 149 151 168 178 180 175 175 170 154 141 133 137 148 148 142 144 148 137 126 127 127 124 123 120 116 113 114 112 112 113 114 106 102 107 93 83
315 297 315 263 274 274 283 308 293 116 111 129 125 122 134 130 154 158 129 116 135 148 137 173 165 18 251 101 108 134 132 135 133 136 141 144 149 151 153 152 152 156 161 159 158 169 178 174 171 170 164 163 168 170 161 161 161 164 164 155 162 164 158 176 182 184 181 174 172 160 152 147 149 156 160 155 152 156 143 135 142 137 130 129 126 125 120 118 116 114 123 127 115 108 111 93 83
260 273 296 271 266 283 286 298 325 104 122 165 136 130 142 149 182 159 149 146 143 162 150 149 124 142 231 88 122 143 131 131 137 140 143 147 149 151 154 149 152 160 164 164 166 170 175 178 177 179 172 171 175 174 170 169 168 170 172 161 168 175 163 177 188 186 179 170 168 162 164 165 161 161 164 162 152 156 156 155 160 149 136 136 139 136 123 124 127 122 136 137 125 120 116 104 85
290 291 311 287 275 273 266 290 318 124 189 136 121 137 149 164 190 126 147 152 122 134 102 92 110 170 210 108 130 140 127 135 141 143 143 148 149 152 155 151 155 162 169 172 177 176 174 178 181 191 184 178 179 180 183 182 180 178 179 172 172 178 170 178 195 194 181 175 176 171 174 178 174 172 173 171 166 168 170 171 168 158 152 154 151 147 140 140 140 142 158 144 148 147 127 119 91
296 315 316 284 288 275 225 239 297 316 64 109 123 146 141 110 67 77 64 99 95 106 99 67 50 93 32 101 130 134 135 141 144 145 146 148 151 154 149 152 157 155 166 177 185 185 180 175 182 198 193 185 187 187 194 196 192 186 185 184 182 183 182 184 195 203 196 194 199 192 187 190 190 189 188 185 186 187 183 182 179 174 170 175 172 168 167 162 161 163 171 173 176 157 134 129 96
255 318 305 255 275 282 238 202 256 336 55 109 135 145 136 98 47 114 22 43 103 126 117 95 85 338 50 83 120 132 139 144 147 148 147 144 149 154 141 148 162 165 171 182 191 193 188 180 184 199 193 186 195 197 202 203 199 195 192 192 192 192 193 194 199 207 210 214 217 211 208 205 204 199 199 200 201 198 196 199 200 197 191 200 200 194 191 181 177 176 184 195 183 157 141 133 100
248 289 271 261 257 264 282 241 191 128 108 125 150 154 146 132 130 213 103 308 116 129 164 118 123 92 78 109 129 133 140 145 149 150 143 141 150 159 156 158 173 185 188 190 194 195 195 190 186 194 194 186 196 203 207 210 204 202 204 200 200 201 203 204 205 211 216 224 226 220 217 215 217 213 212 212 210 210 209 212 214 209 208 222 221 212 216 202 187 186 198 205 190 172 153 137 107
276 224 239 258 252 249 308 289 236 111 128 146 163 178 168 146 156 145 129 215 156 140 170 134 108 94 103 123 134 136 143 147 151 154 148 151 162 165 171 179 186 190 190 194 197 195 196 197 192 193 195 188 195 201 203 217 215 205 211 210 209 208 211 214 215 220 223 226 227 223 220 220 230 231 232 229 223 223 219 216 214 211 215 226 224 219 232 224 209 201 208 212 202 189 165 164 152
224 246 242 242 263 293 339 312 338 61 117 144 154 198 197 148 151 148 167 192 178 176 188 166 162 127 116 130 140 141 147 153 159 162 158 164 173 174 177 186 192 191 189 191 196 197 198 199 198 199 197 189 195 201 200 216 221 211 212 214 215 215 216 221 224 228 231 233 229 225 221 216 225 232 234 231 229 226 220 217 215 216 221 227 232 236 240 238 232 227 232 241 221 200 179 192 200
204 228 250 244 306 337 330 331 17 40 26 134 144 161 43 144 142 148 213 209 183 187 194 180 190 170 146 146 151 151 154 160 168 169 168 173 179 181 181 186 192 193 190 190 194 197 199 200 199 200 200 192 195 201 199 208 222 220 214 214 218 221 221 221 228 232 235 237 232 229 223 212 215 223 227 227 230 229 221 217 219 223 227 230 239 244 241 239 238 239 242 243 229 206 184 202 225
196 205 243 258 18 1 324 356 28 41 359 349 116 107 218 160 129 156 212 234 209 205 196 176 194 185 162 158 158 161 161 164 176 180 176 180 186 187 186 187 191 195 193 188 192 196 198 202 200 199 200 198 198 200 197 200 216 218 209 214 218 223 224 222 226 230 233 232 229 231 221 212 218 223 226 227 229 232 227 222 225 228 230 235 239 241 240 234 238 243 238 231 225 208 189 193 220
234 232 243 268 310 347 358 24 25 43 348 312 106 139 204 131 128 191 219 237 204 149 94 115 110 152 154 154 156 164 167 167 179 188 186 186 191 193 191 191 191 193 193 189 191 196 198 201 202 200 200 201 202 203 200 198 207 209 205 211 214 219 226 226 225 224 227 224 224 228 216 214 225 224 226 231 233 237 236 233 233 231 233 238 233 236 237 223 237 244 230 225 214 206 198 197 215
240 246 238 259 257 261 356 47 9 11 291 273 113 321 38 120 195 201 216 237 189 99 77 77 65 59 122 144 152 167 173 174 181 190 194 193 194 196 195 194 193 190 192 193 193 195 197 199 200 201 201 204 206 205 204 202 204 207 209 210 212 217 222 225 225 221 223 223 223 225 218 220 229 228 229 239 243 237 233 236 237 231 229 232 230 234 229 211 223 237 226 225 207 199 209 211 220
226 241 243 250 234 233 209 94 351 317 284 306 2 334 330 235 239 186 204 227 237 116 102 103 101 91 116 143 156 173 180 181 187 191 195 198 198 199 198 198 197 191 190 195 195 195 197 199 200 201 202 204 206 205 205 207 207 208 209 210 213 216 216 220 223 219 219 225 229 227 223 224 230 234 234 239 244 229 219 227 231 230 223 222 225 226 222 206 209 222 220 224 212 201 214 220 222
223 235 251 263 244 215 153 125 172 248 274 337 346 304 272 261 323 49 239 236 243 215 138 128 126 128 142 160 163 176 186 186 190 192 195 201 201 200 201 203 201 194 192 195 196 197 198 199 200 201 202 203 205 207 206 209 210 209 209 210 212 212 212 215 219 220 219 225 229 228 225 225 227 234 236 234 240 233 221 222 223 225 225 223 221 218 223 213 208 216 212 214 217 210 217 224 224
219 222 235 260 256 206 183 179 185 206 215 202 251 259 259 258 65 265 248 244 249 242 175 150 151 163 176 180 174 180 187 190 191 193 196 198 201 200 200 203 204 200 197 198 197 198 199 199 200 202 203 203 204 206 206 209 212 212 213 212 213 213 213 212 215 221 223 223 224 226 226 224 223 226 230 231 236 236 229 226 223 223 228 231 225 216 222 222 216 217 211 210 216 217 220 225 226
256 228 231 249 249 222 201 208 201 203 206 202 222 251 255 184 101 246 236 226 228 234 205 161 173 189 192 195 191 190 189 196 194 193 195 191 196 200 199 200 203 204 202 200 201 200 199 200 201 202 204 204 204 206 206 208 210 213 214 215 215 216 216 212 211 216 219 220 221 227 228 225 225 220 222 229 230 230 229 228 226 224 226 230 227 219 221 225 221 216 214 216 217 221 223 222 226
273 256 257 256 253 240 204 201 213 213 206 206 221 258 264 218 196 228 247 259 210 216 213 189 203 201 202 206 197 195 194 201 196 190 192 189 194 201 200 201 201 203 203 202 203 202 201 202 203 202 204 205 206 207 208 209 210 211 213 216 217 218 220 216 213 214 214 216 216 221 226 227 228 220 217 225 226 226 228 228 226 224 224 224 224 223 223 226 225 214 213 219 219 223 223 219 224
271 270 267 259 262 249 208 188 212 217 208 192 191 265 256 241 240 221 224 256 196 199 222 210 213 199 204 213 203 197 191 200 196 189 197 198 198 200 203 206 203 202 204 204 203 203 203 202 204 204 204 206 207 208 210 212 211 210 210 213 217 219 222 220 217 217 215 218 217 216 219 222 228 225 217 220 225 227 228 228 226 226 227 224 223 225 222 222 225 218 213 215 215 218 222 221 223
263 270 265 254 261 250 210 190 210 219 213 170 139 246 237 235 243 225 209 220 210 206 213 212 214 200 205 209 208 203 187 196 200 196 201 203 200 202 206 208 207 207 206 204 202 205 206 202 203 204 205 206 209 209 210 213 212 211 211 212 214 217 221 220 218 218 216 218 218 217 217 216 223 226 220 217 220 225 227 229 229 228 229 228 224 225 222 219 223 224 219 217 215 214 217 219 221
237 248 257 241 247 243 211 198 201 214 204 161 159 232 246 249 251 242 219 205 207 217 214 211 213 209 212 205 206 211 190 191 203 205 204 205 203 203 207 207 208 209 207 204 205 207 207 204 204 204 206 206 209 210 209 212 214 213 214 214 214 215 219 220 220 219 215 215 217 219 218 214 214 218 219 216 216 220 223 227 229 228 227 229 227 224 224 222 223 228 228 225 222 219 218 217 219
232 230 237 224 230 241 230 212 198 203 188 165 182 224 241 248 259 271 255 190 194 222 224 216 215 215 218 213 206 209 199 193 201 207 207 208 207 205 208 207 205 207 207 208 208 208 206 207 206 205 207 207 207 210 210 212 214 215 216 216 215 216 219 220 222 222 218 216 218 221 222 218 215 215 214 213 215 218 220 223 227 227 224 224 226 222 224 226 227 231 232 228 226 225 224 221 221
225 226 234 223 224 232 236 235 203 190 171 182 208 231 228 238 244 248 252 209 192 209 224 227 230 229 225 226 221 213 206 196 197 203 206 209 210 209 210 208 207 207 208 209 209 209 208 208 209 207 209 211 209 210 211 211 212 215 217 217 217 218 221 221 221 223 222 220 219 221 223 223 221 219 216 212 214 219 221 222 225 225 222 221 221 219 224 228 229 229 227 225 225 226 226 225 223
216 221 233 234 233 230 216 225 197 178 183 205 211 229 235 252 262 236 221 214 185 194 223 234 245 254 245 237 237 233 225 209 191 191 203 212 215 214 213 212 211 209 210 211 211 212 212 210 210 211 212 214 212 210 211 211 211 212 215 218 219 218 221 224 223 223 224 222 220 221 222 224 224 222 220 214 213 218 221 223 225 223 221 221 219 217 222 228 227 223 222 223 222 223 225 225 223
208 214 224 234 233 237 224 207 166 171 203 216 206 222 230 240 257 250 222 207 185 204 219 219 230 239 241 236 233 237 234 222 194 187 201 214 219 219 217 217 216 212 211 212 213 215 215 212 212 214 215 214 212 211 212 211 210 211 212 215 218 218 219 222 225 226 227 224 222 222 221 223 224 222 221 215 213 216 218 221 224 223 220 221 220 218 220 224 224 220 220 222 222 222 223 226 226
212 223 229 231 227 234 231 220 178 178 206 217 209 222 225 227 241 244 243 231 212 216 215 213 225 230 232 235 230 230 231 225 207 203 210 214 216 218 216 217 218 217 213 212 214 214 213 212 211 214 216 214 210 208 209 208 208 210 211 212 214 217 218 219 221 224 226 226 227 226 223 223 223 223 222 217 215 215 216 219 221 222 220 219 218 217 219 219 219 218 219 220 221 223 223 224 226
224 231 238 236 237 232 231 230 185 181 207 215 213 229 233 230 234 235 236 236 234 231 226 220 218 223 224 227 237 237 235 236 225 221 222 218 215 215 212 211 214 216 215 213 213 213 212 211 210 214 217 213 207 205 206 206 206 207 208 211 213 215 217 218 219 221 222 224 226 228 226 224 223 225 224 221 217 215 215 217 219 219 218 218 218 218 219 218 217 218 219 219 219 222 223 221 219
228 233 241 241 244 238 235 226 163 178 216 211 212 233 239 240 242 243 235 231 237 234 235 236 229 229 219 213 227 234 234 235 230 226 224 219 216 214 208 205 207 209 212 214 215 214 213 213 212 214 214 210 208 209 208 207 209 210 210 213 215 216 217 218 219 221 222 222 222 225 227 226 225 226 226 225 222 218 217 218 219 219 216 217 219 219 220 218 217 218 218 218 217 219 223 222 215
223 231 243 245 246 241 241 221 159 174 223 215 226 249 249 248 248 251 248 240 241 237 238 241 241 246 239 227 225 225 230 229 225 225 222 218 217 212 205 205 208 210 212 215 218 216 213 213 214 214 212 211 211 212 211 212 214 215 215 216 216 217 219 221 222 223 224 223 222 223 226 227 227 226 227 228 225 222 221 220 220 220 218 218 219 219 219 218 217 217 217 217 217 218 223 225 218
222 225 233 240 243 235 233 222 156 150 183 222 277 274 264 269 265 257 255 251 245 240 244 246 243 245 246 245 242 231 229 229 226 224 221 220 217 210 205 208 212 214 215 216 217 214 213 214 214 213 212 213 214 214 214 217 218 218 218 220 220 220 223 224 224 225 225 225 224 224 225 226 226 226 225 225 226 225 223 223 222 221 221 220 220 220 219 218 217 217 217 216 215 216 219 223 221
224 224 226 233 234 228 219 202 143 147 184 213 280 288 269 255 255 249 248 255 251 239 239 244 241 239 242 246 246 240 235 232 231 228 225 221 216 210 209 213 216 217 217 217 216 215 215 216 216 215 215 217 218 218 218 216 215 215 215 217 219 220 222 221 219 220 223 224 224 224 225 224 224 225 224 223 225 225 223 222 223 222 221 221 222 222 221 221 220 218 218 217 216 215 217 219 219
227 221 222 230 229 228 219 186 162 174 215 192 180 268 271 226 234 236 224 234 243 237 232 238 239 237 238 242 244 242 239 236 234 236 237 231 228 223 217 215 215 218 221 220 218 217 217 219 220 220 220 221 221 221 220 216 212 211 208 207 208 209 212 213 213 216 219 221 223 225 225 225 224 225 225 224 224 225 224 222 221 221 219 219 221 223 223 222 222 222 220 219 219 219 218 218 217
231 213 214 226 228 227 224 206 192 194 230 188 176 218 266 240 238 245 233 231 238 235 228 230 234 235 235 237 240 239 236 236 234 237 239 237 238 238 238 230 220 219 223 223 221 220 219 221 222 223 224 225 225 223 221 217 213 211 209 208 208 208 210 214 216 218 221 223 224 225 224 225 225 225 225 225 223 224 225 223 221 221 219 218 218 220 222 222 222 223 222 221 222 221 220 220 219
229 210 203 214 216 218 225 229 228 195 105 236 200 214 270 271 245 237 249 254 253 250 238 226 220 223 228 231 233 232 228 226 224 230 233 234 234 232 241 246 240 233 228 222 221 221 222 225 227 227 227 228 227 224 221 218 215 214 213 214 215 215 217 219 219 220 223 224 225 225 225 226 226 226 226 225 224 222 223 224 222 222 221 219 219 219 221 222 222 223 223 223 223 223 222 222 223
224 165 186 204 209 221 234 241 242 133 91 223 221 191 270 268 234 200 226 236 243 246 240 233 222 215 220 222 225 227 225 221 217 222 225 222 222 222 229 237 241 243 233 220 219 223 226 229 230 229 228 228 228 226 222 220 219 218 217 217 219 221 223 225 224 223 224 223 225 226 226 226 226 226 227 227 226 223 221 223 223 222 222 221 220 221 222 222 220 220 221 221 222 223 223 224 225
154 116 153 181 189 213 236 241 234 69 151 219 215 188 235 269 248 190 215 222 229 236 233 233 227 220 220 215 220 225 224 227 224 223 220 211 218 229 236 237 239 243 237 226 223 225 226 227 228 228 228 229 228 227 225 223 221 220 220 221 222 223 224 225 225 225 224 221 222 224 223 224 224 225 227 227 227 225 222 222 223 224 224 222 222 223 224 224 222 220 221 221 222 223 224 224 226
144 129 139 106 113 179 276 276 95 100 234 221 217 207 214 263 257 191 217 224 213 214 220 228 218 214 224 222 221 218 213 223 225 222 214 208 231 247 248 246 244 243 239 233 229 225 223 224 227 228 230 231 230 229 227 226 224 222 223 224 225 225 223 221 221 223 223 220 220 221 220 221 222 223 226 226 227 226 224 223 223 225 225 223 223 223 224 225 224 223 223 223 224 225 224 224 227
167 155 140 110 47 9 3 358 129 198 233 216 222 220 216 245 251 167 207 296 162 182 185 186 178 198 227 231 219 201 196 206 206 199 186 189 225 236 234 236 238 237 234 232 230 227 225 227 229 231 235 235 233 232 230 228 226 225 226 227 228 229 226 222 222 223 223 221 222 221 220 220 221 222 224 224 226 226 224 224 224 225 226 225 224 224 224 226 226 224 224 224 226 227 226 225 226
198 164 144 159 176 182 203 210 192 215 232 213 217 223 221 241 251 236 239 45 60 311 248 178 184 213 229 223 203 184 175 172 163 161 168 196 221 226 228 232 233 233 233 233 232 231 231 234 235 236 240 241 238 236 233 231 229 227 228 229 230 231 229 227 226 226 226 225 226 224 220 219 219 221 222 224 226 225 224 224 224 225 226 226 226 225 225 226 226 225 225 226 228 228 228 226 227
187 172 165 181 185 191 205 209 208 216 230 222 223 246 240 243 246 233 232 232 200 196 220 233 239 236 220 198 190 178 164 164 160 169 201 223 232 236 237 238 237 237 239 240 239 237 237 239 240 241 245 247 243 239 236 233 232 231 230 230 232 232 231 230 230 230 230 228 228 227 224 222 221 223 224 225 228 227 226 226 226 226 227 228 228 227 227 227 227 227 227 228 230 231 231 229 230
188 184 183 195 191 198 207 203 205 212 223 213 211 241 214 202 231 212 216 226 215 197 199 209 232 247 236 226 223 201 184 190 186 194 215 224 228 235 240 242 243 245 249 251 249 247 244 244 245 245 248 250 246 242 238 234 233 233 232 232 232 233 233 232 232 233 233 232 231 230 229 228 227 228 229 230 231 230 229 229 228 228 228 228 228 228 228 227 227 227 228 229 231 234 234 232 231
194 182 208 215 202 210 227 211 191 187 205 208 201 228 218 227 293 285 214 217 210 212 215 207 220 238 243 250 247 223 205 206 200 199 216 229 233 239 249 260 269 276 276 271 267 262 256 254 253 251 252 253 250 244 239 236 234 233 233 232 231 232 233 233 233 234 234 234 234 233 233 233 233 234 235 235 235 233 233 232 231 230 229 228 228 228 228 227 226 226 228 229 231 233 235 234 233
181 187 208 213 202 220 234 257 185 162 197 209 193 230 255 275 285 260 221 206 203 209 213 213 218 224 231 242 244 226 204 198 206 210 219 234 239 253 289 303 307 307 305 298 290 280 270 265 262 259 259 259 254 247 242 239 237 235 234 233 231 231 231 232 233 234 235 235 235 235 236 235 236 237 236 236 237 236 235 235 233 232 231 229 229 229 229 230 228 227 227 229 231 233 235 236 236
162 197 196 173 32 347 227 230 216 187 213 215 201 218 214 215 253 229 203 209 204 195 202 213 218 221 230 235 231 220 199 198 216 209 207 223 220 17 347 334 328 320 314 309 302 291 279 272 268 266 266 264 261 255 248 244 241 238 236 233 232 231 231 233 235 235 235 235 235 236 236 236 236 237 237 237 237 238 237 235 234 234 233 231 230 230 231 231 230 229 228 229 232 234 236 238 239
117 213 191 148 148 199 180 207 207 200 218 218 221 230 213 201 227 222 204 208 200 194 204 213 216 219 222 218 220 216 195 201 204 159 162 228 67 46 13 351 335 329 328 324 320 310 292 280 273 269 269 270 267 261 255 250 245 241 238 235 234 234 234 235 236 236 235 233 235 236 236 236 236 236 237 236 236 236 236 235 233 233 233 233 232 232 232 232 231 230 230 231 232 234 236 238 239
74 313 208 147 196 199 189 202 199 197 213 220 230 236 221 214 229 233 222 210 196 195 203 209 213 212 205 202 207 201 187 189 164 136 162 241 80 65 14 342 345 353 358 358 357 356 345 324 301 282 274 271 267 262 255 250 246 243 241 239 238 237 237 236 236 236 235 235 237 236 236 237 238 237 236 236 236 236 236 235 234 233 232 233 234 233 232 232 231 230 231 232 233 233 235 237 238
161 184 189 174 192 211 204 213 210 200 208 218 234 242 230 208 220 225 222 213 195 189 193 204 212 208 207 202 183 167 163 159 142 138 171 230 184 122 221 309 11 8 9 13 12 18 20 12 355 329 300 279 269 263 257 249 244 241 242 242 241 239 237 236 235 235 235 237 237 236 236 237 238 237 235 235 236 237 237 237 236 235 234 234 235 235 233 231 230 231 231 232 233 234 235 236 238
184 191 190 186 187 178 192 215 212 200 208 208 227 247 243 204 221 229 218 213 203 189 189 198 204 201 200 182 149 142 144 147 148 152 169 214 221 179 195 279 359 3 9 15 14 20 27 25 17 4 344 315 286 268 258 252 247 243 241 242 242 240 237 235 233 233 235 237 237 236 236 236 236 237 235 235 236 237 237 237 236 237 237 236 236 236 235 232 230 231 231 232 233 234 235 236 237
Height
797 796 794 794 791 792 791 791 810 807 805 817 810 815 816 807 807 808 812 812 812 811 805 806 804 805 810 813 815 816 818 820 826 832 838 832 825 830 830 831 832 832 835 837 838 838 839 840 841 842 843 843 844 845 846 846 847 848 848 849 850 850 850 851 851 852 852 852 852 852 853 853 853 854 854 854 855 855 855 855 855 855 856 856 856 857 857 857 858 858 858 858 858 858 858 858 858
797 797 793 794 790 795 795 790 816 816 808 821 814 815 815 806 809 812 814 814 814 810 804 805 805 806 807 807 808 813 821 819 818 824 827 825 827 830 829 832 833 833 835 837 838 838 839 840 842 843 843 844 845 846 846 847 848 848 849 850 850 851 851 852 852 853 853 853 853 853 854 853 854 854 855 855 855 856 856 856 856 856 857 857 857 858 858 858 859 859 859 859 859 859 859 859 860
798 797 793 795 791 792 795 796 817 819 815 826 823 813 809 810 812 813 814 813 811 807 806 808 809 809 808 811 811 816 825 820 818 822 824 826 827 828 830 832 832 833 835 837 838 839 840 840 842 843 844 845 845 846 847 848 849 849 850 850 851 851 852 852 853 853 853 854 854 854 854 854 854 855 856 856 856 857 857 857 857 858 858 858 858 859 859 859 859 860 860 860 860 860 860 861 861
798 796 794 795 797 797 801 808 813 815 819 823 824 813 805 810 811 813 812 811 809 807 809 810 812 809 810 819 813 816 824 819 819 821 823 826 826 828 830 832 833 834 835 837 838 839 840 841 842 843 844 845 846 847 848 849 849 850 850 851 851 852 853 853 853 853 854 854 854 855 854 855 855 856 856 857 857 857 858 858 858 859 859 859 859 860 860 860 860 860 861 861 861 861 862 862 862
798 797 795 795 804 804 805 813 808 812 820 815 819 814 804 807 809 813 811 810 809 809 811 811 816 809 808 815 811 820 825 820 820 820 823 825 825 829 830 832 833 834 836 837 838 839 840 841 842 843 844 845 846 847 848 849 850 850 851 851 852 852 853 853 853 853 854 854 854 855 855 856 856 857 857 857 858 858 859 859 859 860 860 860 860 861 861 861 861 861 862 862 862 862 863 863 863
798 797 793 794 800 800 809 819 813 814 812 804 813 811 804 805 808 812 811 810 809 809 812 812 816 812 813 813 811 820 821 819 821 821 822 824 826 829 830 832 833 835 836 837 838 838 840 841 842 843 844 845 846 847 848 849 850 851 851 852 852 852 853 853 854 854 855 855 855 856 856 856 857 857 858 858 859 859 860 860 860 860 861 861 861 862 862 863 862 863 863 863 863 863 863 863 864
800 800 795 799 801 800 815 821 813 814 808 800 808 807 804 805 806 811 813 813 813 811 812 812 811 815 819 814 817 821 817 818 819 821 823 825 827 829 831 832 834 835 836 837 837 838 840 841 842 843 844 845 846 847 849 850 850 851 852 852 852 853 853 853 854 855 855 856 856 856 856 857 857 858 858 859 859 860 860 860 861 861 862 862 862 863 863 863 863 864 864 864 864 864 864 864 864
801 804 799 808 814 809 817 817 809 810 808 801 803 804 803 804 806 810 814 814 816 814 813 813 810 820 820 811 822 824 818 820 819 822 825 826 829 830 832 833 834 835 837 837 837 838 839 840 842 843 844 845 846 847 848 849 850 851 851 852 853 853 853 854 854 855 856 856 856 856 857 857 858 858 859 859 859 860 860 861 861 862 862 863 863 864 864 864 864 865 864 864 864 864 865 865 865
801 804 804 812 820 817 816 814 808 805 805 804 804 805 802 803 804 808 813 814 814 813 814 812 811 822 819 814 825 823 820 822 821 824 825 828 830 831 832 833 835 836 837 837 837 839 839 841 842 843 844 845 846 847 848 849 850 850 851 852 852 853 854 854 855 855 856 856 856 857 857 857 858 858 859 859 860 860 861 861 862 862 863 863 864 864 865 865 865 865 865 865 865 865 865 866 866
803 804 809 817 821 824 822 813 808 805 804 803 804 804 803 804 804 807 811 814 813 813 813 810 813 820 818 820 826 822 822 823 822 825 826 829 830 832 833 833 835 836 838 837 838 839 840 841 842 843 843 844 846 846 847 848 849 850 851 851 852 853 854 854 854 855 855 856 856 857 857 857 858 858 859 859 860 861 861 862 862 863 863 864 864 865 865 865 866 866 866 866 866 866 866 866 866
811 807 809 822 827 829 825 816 811 806 803 803 804 803 803 803 805 808 809 812 812 813 814 812 817 818 816 822 826 822 822 822 823 825 827 829 831 832 833 834 835 836 838 838 839 840 841 842 842 843 844 845 845 846 847 848 849 849 850 851 852 852 853 854 854 854 855 856 856 856 857 857 858 858 859 859 860 861 861 862 863 863 864 864 865 865 865 866 866 866 866 866 866 867 867 867 867
818 815 813 827 830 825 819 815 812 806 804 806 808 804 801 803 807 810 810 813 813 814 815 814 816 814 818 823 825 823 821 823 823 825 827 829 830 832 833 834 836 837 838 839 840 840 841 842 843 844 844 845 845 846 847 847 849 849 850 851 851 852 852 853 853 854 854 855 855 856 857 857 858 858 859 859 860 860 861 862 863 863 864 864 865 865 866 866 866 866 867 866 867 867 867 867 867
818 817 820 829 823 818 816 814 810 808 809 806 807 804 801 806 809 809 810 812 812 816 815 810 810 813 819 823 823 822 822 823 823 825 827 829 830 832 833 834 836 837 838 840 840 840 841 842 843 844 844 845 846 847 847 848 849 849 850 851 851 852 852 853 853 854 854 855 855 856 857 857 858 858 859 859 860 860 861 862 862 863 864 864 865 865 866 866 867 867 866 867 867 867 867 867 868
815 812 819 827 819 816 815 815 812 812 812 803 802 803 801 806 806 804 807 812 814 814 812 806 807 814 819 822 826 824 822 824 824 826 827 829 831 831 833 834 836 837 838 840 840 841 841 842 843 843 844 845 846 847 848 848 848 849 850 850 851 851 852 853 852 853 854 854 855 856 856 857 857 858 858 859 859 860 861 862 862 863 864 864 865 865 866 866 866 866 866 867 867 867 867 868 868
812 811 817 826 823 819 813 813 812 813 813 804 802 802 803 805 802 804 807 813 815 808 808 807 807 817 819 821 828 823 822 824 824 826 827 829 830 831 833 833 836 836 837 839 840 841 841 842 842 843 844 845 846 847 848 848 849 849 850 850 851 851 852 852 853 853 854 854 855 856 856 856 857 857 858 858 859 860 861 861 862 863 863 864 864 865 865 866 866 866 866 867 867 867 867 868 868
808 812 820 828 828 824 814 809 811 815 814 806 802 800 806 807 801 807 806 807 813 807 808 811 809 814 816 817 822 820 821 823 824 826 826 828 830 831 832 833 835 836 837 838 840 841 841 842 842 843 844 844 846 846 847 848 849 849 849 850 850 851 852 852 853 853 854 854 855 855 856 856 857 857 858 858 859 860 860 861 862 862 863 863 864 864 865 865 866 866 866 866 866 867 867 867 868
807 816 827 831 828 824 814 808 810 814 813 806 803 801 808 811 805 806 803 803 810 810 810 811 809 810 813 815 817 817 820 822 823 826 826 828 829 830 832 833 835 835 837 837 838 840 840 841 842 843 843 844 845 846 847 847 848 849 849 850 850 851 851 852 852 853 854 854 854 855 855 856 856 857 858 858 859 859 860 860 861 862 862 863 863 864 864 865 865 865 866 866 866 867 867 867 867
813 822 831 832 825 818 810 806 803 803 808 807 805 802 806 811 810 806 806 809 810 812 811 810 810 810 812 814 816 817 819 821 823 824 826 828 829 830 832 832 833 834 835 836 837 838 839 840 841 842 842 844 845 846 846 846 847 848 849 850 850 851 851 852 852 853 853 853 854 854 855 855 856 857 857 857 858 859 859 860 860 861 861 862 863 863 863 864 864 865 865 865 866 866 866 867 867
817 822 829 828 818 809 803 801 798 799 804 805 804 802 803 808 808 807 811 814 812 814 814 811 813 813 814 815 816 818 818 820 821 823 824 826 828 829 830 831 832 833 833 835 836 837 838 839 840 841 841 843 844 845 846 846 846 847 848 849 849 850 850 851 852 852 853 853 854 854 855 855 856 856 856 857 857 858 859 859 860 860 861 861 862 862 863 863 864 864 864 865 865 866 866 866 866
815 820 828 822 811 807 800 798 799 799 801 802 804 803 804 805 804 808 812 813 812 814 813 812 815 814 814 815 815 817 818 820 821 821 823 824 826 827 828 829 830 831 832 833 834 836 836 837 838 839 840 841 842 843 845 845 845 846 847 847 848 849 850 851 851 852 852 852 853 854 854 855 856 856 856 856 856 857 858 858 859 860 860 861 861 862 862 862 863 863 863 864 864 865 865 865 865
812 816 824 814 807 811 804 799 800 800 802 803 804 806 808 804 802 807 810 814 815 810 806 807 809 808 809 812 813 816 817 819 820 821 822 823 824 824 826 827 828 829 830 831 833 834 835 836 837 838 839 839 840 841 843 844 844 846 846 847 848 848 849 850 850 851 851 852 852 853 854 855 855 855 855 855 856 856 857 858 858 859 859 860 860 861 861 862 862 862 862 863 863 864 864 863 864
813 812 813 808 807 812 806 802 804 803 804 805 806 809 807 802 804 807 809 815 814 806 801 801 802 801 803 807 811 813 815 817 819 820 820 821 822 823 824 825 826 828 829 830 831 832 833 835 836 837 838 838 839 840 841 843 843 844 845 846 847 847 848 848 849 850 850 851 851 852 853 854 855 854 854 855 856 856 856 857 857 858 858 858 859 859 860 860 861 861 861 862 862 862 862 863 863
815 812 807 806 806 809 807 805 807 805 807 808 808 808 803 805 809 806 807 810 806 800 799 799 799 798 800 805 809 812 813 815 816 817 818 819 820 821 822 823 824 825 826 828 829 830 832 833 835 836 837 838 838 839 840 841 842 843 844 845 846 846 847 847 848 849 849 850 851 852 853 853 854 854 854 854 855 856 856 856 856 857 857 857 858 858 859 859 860 860 860 860 861 861 861 862 862
812 813 807 805 804 805 805 806 808 806 808 808 806 807 807 810 809 805 805 804 799 797 796 797 799 799 801 804 807 809 810 812 813 815 816 817 818 819 820 821 822 823 825 826 827 828 829 831 832 833 835 836 837 838 839 840 840 841 842 843 844 845 845 846 847 847 849 849 850 852 852 853 854 853 854 854 855 855 856 855 856 856 856 856 856 857 857 858 858 859 859 859 859 859 860 860 860
807 811 808 804 802 802 803 806 808 807 808 806 807 810 809 808 807 807 806 801 797 796 796 797 798 800 801 803 805 807 808 809 811 812 814 815 816 818 819 820 821 822 822 824 825 826 827 828 829 831 832 834 835 836 837 838 839 839 840 841 842 843 844 845 846 846 847 848 849 850 851 852 853 853 854 854 854 854 855 855 855 855 855 855 855 856 856 856 857 857 858 858 858 858 858 859 859
803 805 806 805 803 801 802 804 807 807 807 806 810 813 809 804 806 809 804 800 797 795 796 797 799 801 802 802 803 804 806 807 808 810 811 813 814 816 817 818 819 820 821 822 823 824 825 826 827 828 829 831 832 833 835 836 837 838 838 839 840 840 841 843 844 845 845 846 847 847 848 850 851 852 852 853 853 853 853 854 854 854 854 854 854 854 855 855 855 855 856 856 856 857 857 857 857
799 800 803 803 802 800 801 803 804 806 806 806 811 813 808 803 808 811 802 795 795 796 797 797 799 801 801 801 801 802 803 804 805 807 809 810 812 813 813 815 816 817 819 820 821 822 823 824 825 826 827 828 829 830 831 833 834 835 836 837 838 838 839 840 842 843 844 845 845 846 846 847 848 849 850 851 851 851 852 852 852 852 852 852 853 853 853 853 853 854 854 854 855 855 855 856 856
799 799 803 803 801 799 799 802 804 805 806 805 808 811 808 806 809 809 801 794 794 796 798 797 799 800 799 800 799 800 800 801 803 804 806 807 808 810 811 811 813 815 816 817 818 820 821 822 823 824 825 826 827 828 828 830 831 832 834 834 835 836 837 838 839 840 841 842 843 844 844 844 845 846 847 848 849 849 849 850 851 851 851 851 851 852 852 852 852 852 853 853 853 854 854 854 855
801 801 807 807 803 801 798 800 803 805 807 802 805 816 815 810 807 803 799 796 795 797 798 798 797 798 798 798 798 798 798 799 800 801 802 804 805 807 808 808 809 811 812 814 816 817 818 820 821 822 823 824 824 825 826 827 828 829 831 832 832 834 834 835 836 837 838 839 841 842 842 842 843 844 845 846 847 847 847 847 848 848 849 849 850 850 850 851 851 851 851 852 852 852 852 853 853
806 806 809 811 812 808 798 799 803 804 806 799 808 827 822 808 801 797 795 794 795 798 798 797 796 796 796 796 796 796 796 797 798 798 799 801 803 804 805 806 807 808 809 811 813 813 815 816 818 819 820 821 822 823 824 825 826 827 828 829 830 831 831 832 833 834 835 836 837 838 839 840 840 841 842 843 844 845 845 845 845 846 847 848 848 848 848 849 849 849 849 850 850 850 850 851 851
809 813 813 816 823 815 798 797 802 805 804 796 809 829 821 805 797 791 788 788 793 797 797 796 795 795 795 794 795 795 793 794 795 796 797 798 800 801 802 803 804 805 807 808 809 810 811 813 814 816 817 819 820 821 822 823 824 825 826 827 828 829 829 829 830 831 832 833 833 834 835 836 837 838 839 840 840 841 842 842 842 844 845 846 846 846 847 847 847 847 847 848 848 848 848 849 849
810 820 823 819 822 817 800 794 798 804 803 797 809 825 817 804 797 789 785 786 791 795 795 794 793 793 793 792 792 793 791 791 792 794 795 796 797 798 799 800 801 802 803 805 806 807 809 810 811 812 813 815 816 817 819 820 822 823 824 825 826 827 827 827 827 828 829 830 830 830 831 832 833 834 835 836 837 837 838 838 839 840 842 843 843 844 844 844 845 845 845 845 845 845 846 846 847
813 819 825 820 819 818 807 795 791 796 803 802 808 817 813 802 794 788 785 786 789 792 793 792 792 791 790 790 790 790 790 789 789 791 792 794 795 795 796 797 798 799 800 802 803 804 805 806 808 809 810 811 812 814 816 817 819 820 821 823 824 825 825 825 826 826 826 826 826 826 827 828 829 830 832 833 834 834 835 835 836 837 839 840 841 842 841 842 842 843 843 843 843 843 844 844 844
818 816 821 817 813 814 811 802 791 792 802 806 806 809 808 800 792 788 786 785 788 791 793 792 791 791 789 789 789 788 788 788 787 788 790 792 792 793 794 795 796 797 798 799 800 801 802 803 804 805 806 808 809 811 813 814 816 818 819 820 821 822 823 823 824 824 823 823 823 823 824 824 825 826 828 829 830 831 832 833 833 834 835 836 838 838 839 839 840 840 840 841 841 841 841 841 842
821 819 819 817 812 809 808 804 796 794 801 804 806 808 806 799 793 791 787 785 788 791 791 791 790 790 789 788 788 787 786 786 785 785 787 789 790 791 792 793 793 794 795 796 797 798 799 801 801 803 804 805 807 808 810 812 814 816 816 817 818 819 820 820 821 821 821 821 821 821 821 821 822 822 824 825 826 827 829 829 830 831 832 833 834 835 835 836 836 837 838 838 839 839 839 840 840
813 811 812 813 811 807 800 797 793 793 800 803 803 805 803 799 795 792 788 785 788 789 788 789 789 788 787 787 786 786 785 784 782 783 784 785 787 788 788 790 791 792 792 793 794 795 796 798 799 800 801 802 804 806 808 810 811 813 814 815 815 814 814 815 816 817 818 818 819 819 820 819 820 820 820 822 823 824 825 826 826 827 828 829 830 830 830 831 833 833 834 835 836 837 837 838 839
804 806 807 804 805 803 794 790 788 789 799 802 798 800 799 795 793 789 787 786 786 787 787 787 786 785 785 786 785 784 784 782 780 781 781 782 783 784 785 786 787 789 790 790 791 792 793 794 796 796 797 799 801 802 804 805 806 808 809 809 809 809 810 811 811 812 812 813 815 816 817 817 818 818 818 819 819 820 821 821 822 823 824 824 825 825 826 828 829 830 831 833 833 833 834 834 836
802 805 805 801 801 798 789 786 788 788 797 801 795 798 798 792 790 785 784 785 785 784 785 784 783 782 782 782 783 782 781 779 778 778 778 779 780 780 781 782 783 784 785 786 787 787 789 790 791 792 793 796 797 798 799 800 800 801 802 803 804 805 806 807 807 807 808 809 811 812 813 814 815 816 816 817 817 818 818 818 818 819 820 820 821 822 823 825 826 828 829 829 830 830 830 831 834
803 805 805 805 798 794 789 784 788 791 797 801 797 800 799 790 787 784 782 783 782 779 779 780 779 779 780 779 779 779 779 778 777 776 775 776 776 777 778 778 779 779 779 781 782 783 785 786 787 788 790 791 792 793 794 795 796 796 797 798 800 802 802 803 804 805 806 807 808 809 810 811 812 813 813 814 815 815 816 816 816 817 818 818 819 820 820 822 823 824 825 826 827 827 828 828 830
802 803 806 806 796 797 799 791 789 792 796 800 799 801 798 791 788 785 781 779 778 777 775 775 775 776 776 775 775 775 776 776 774 774 772 772 773 773 774 774 775 776 776 776 778 780 782 782 783 785 786 787 787 789 790 791 793 794 795 796 798 800 800 801 802 803 804 804 805 806 805 805 806 807 808 810 811 812 813 814 814 815 816 816 817 817 818 818 819 820 822 823 824 824 825 825 825
799 797 800 801 795 795 798 794 792 793 796 796 802 810 804 796 797 790 782 778 775 775 775 773 772 772 772 771 771 771 771 771 771 771 769 768 769 769 769 770 771 772 773 773 775 776 777 778 780 781 783 783 784 785 787 788 791 792 794 796 797 798 798 799 799 799 799 799 799 798 798 799 800 801 802 804 805 806 807 809 810 811 812 814 814 815 815 816 817 818 819 820 820 820 820 821 822
797 792 791 793 792 791 792 793 795 804 810 799 804 824 813 793 793 789 782 779 775 773 773 771 770 769 770 769 768 768 767 767 767 767 767 766 765 765 765 766 768 769 769 770 772 773 774 776 777 779 780 780 781 782 784 786 787 788 789 790 791 791 792 791 790 791 791 792 792 792 794 796 797 798 798 800 801 801 802 803 805 806 807 809 810 811 812 813 813 814 816 817 817 817 818 819 818
798 786 783 786 788 790 791 792 798 811 816 800 799 822 818 795 789 783 778 778 773 770 769 767 767 767 767 766 765 765 764 763 764 763 763 763 762 763 764 764 766 765 766 767 769 771 772 774 775 776 777 777 778 779 780 782 783 783 784 783 783 783 783 782 783 785 786 787 788 790 792 793 794 795 796 797 798 798 799 800 802 802 803 804 805 806 807 807 809 810 811 813 813 815 816 815 814
791 776 776 783 785 789 791 793 799 803 807 805 799 810 817 804 790 780 776 779 775 769 767 763 763 763 762 762 761 760 760 760 761 761 760 760 760 761 762 763 763 763 764 765 767 768 770 771 772 772 773 773 774 775 776 777 777 779 779 779 779 778 777 778 780 782 783 784 786 787 789 790 791 792 792 793 794 796 797 798 799 800 801 801 802 801 801 802 804 806 807 809 809 811 811 811 810
782 773 774 779 782 789 792 794 799 800 811 821 809 805 816 803 782 777 775 778 777 769 764 761 759 759 758 758 757 756 756 755 756 757 756 757 757 758 759 760 761 761 762 762 763 765 766 767 769 769 770 770 770 771 772 772 773 774 775 775 774 774 775 777 779 780 781 782 783 783 785 786 787 788 788 789 790 792 793 794 795 796 797 798 799 798 798 799 800 801 802 804 805 805 806 806 807
776 774 776 779 782 789 795 798 804 811 821 826 812 806 816 799 774 776 777 776 774 766 759 757 754 754 754 753 753 752 752 752 753 753 753 754 754 756 757 757 759 760 760 761 761 762 763 764 765 766 766 767 767 768 768 769 769 770 771 770 770 770 772 775 777 778 778 778 779 779 780 781 783 783 784 785 786 787 788 790 791 792 792 794 795 796 797 797 797 797 798 799 800 800 801 802 803
772 775 781 788 791 794 800 804 811 824 826 820 807 799 810 801 774 770 771 765 761 758 756 754 751 752 750 749 749 749 750 751 751 751 750 751 752 753 755 756 756 757 758 759 759 759 760 761 762 762 762 763 764 765 765 766 766 766 766 766 767 767 769 771 773 773 774 775 774 775 776 777 778 779 780 781 782 783 785 786 787 788 789 790 791 792 793 794 795 795 796 796 796 797 797 798 799
774 780 788 798 807 810 814 816 818 825 820 808 800 795 804 803 776 763 760 752 750 751 752 751 750 750 748 746 746 747 748 748 748 750 749 750 752 752 753 754 755 756 756 756 757 757 758 758 759 759 759 760 760 761 762 762 762 762 762 763 764 765 767 768 768 768 770 771 771 771 773 774 774 775 776 777 778 779 781 783 784 785 786 786 787 788 789 791 792 792 793 793 793 793 794 795 796
783 788 795 805 817 820 821 821 817 817 810 796 792 795 801 794 771 759 756 750 748 749 748 748 748 748 746 745 745 744 745 747 747 749 749 750 751 751 751 752 753 753 753 754 754 755 755 755 756 755 755 755 757 758 758 758 758 758 759 761 762 763 764 765 765 765 766 767 768 769 769 770 771 772 772 773 773 775 777 779 780 781 781 782 783 785 786 787 788 789 789 790 790 790 791 791 791
787 788 792 799 808 813 813 812 809 809 805 792 788 793 796 785 764 753 752 750 748 747 746 746 746 746 744 743 744 744 744 746 747 748 749 749 749 749 750 750 750 751 751 751 752 752 752 752 752 752 751 752 753 754 754 755 755 756 757 758 759 761 761 762 762 763 763 764 765 766 766 767 767 767 768 769 771 773 774 775 776 777 778 779 780 781 782 783 784 785 786 786 787 787 787 788 787
779 773 776 781 783 791 796 797 802 803 799 792 792 795 791 778 759 744 742 744 744 744 744 743 744 744 743 742 743 744 744 745 746 746 747 747 747 747 747 747 748 748 749 750 750 750 750 750 750 749 749 749 750 750 750 751 752 753 754 755 756 757 758 759 759 760 760 761 762 763 764 764 764 765 766 767 769 770 771 771 773 773 774 775 776 776 777 778 780 781 782 782 783 784 784 783 783
779 772 778 777 767 771 777 780 784 788 792 791 790 787 773 758 749 739 738 740 739 742 742 742 744 743 742 742 741 742 743 743 744 745 745 745 744 745 745 746 747 747 748 748 748 748 748 748 747 747 746 746 747 747 747 748 748 750 750 751 752 753 755 756 756 756 757 758 759 760 760 761 762 763 764 765 766 767 768 768 769 769 770 771 772 772 773 774 775 776 777 778 779 779 779 779 779
774 776 778 770 762 767 775 781 778 779 790 786 776 777 769 759 752 741 740 742 738 740 741 741 742 740 740 740 739 740 741 741 742 742 743 743 743 744 745 745 746 746 746 746 746 746 745 745 745 745 744 744 745 745 745 745 746 747 747 748 749 750 751 752 752 753 754 755 756 757 758 759 759 760 761 762 763 764 765 765 765 766 767 768 768 769 769 770 771 772 773 774 774 774 775 775 775
767 773 767 764 773 779 781 788 787 787 795 783 768 771 773 772 761 742 740 746 740 739 740 739 739 737 738 738 737 739 739 739 741 741 742 742 742 744 744 745 745 744 744 744 744 744 743 743 743 742 742 742 743 743 743 744 744 744 745 745 746 747 748 749 749 751 752 753 754 754 755 756 757 758 759 759 760 761 761 762 762 763 764 765 766 766 767 767 768 769 770 770 771 771 771 771 772
762 763 758 765 781 786 786 789 787 789 796 785 770 768 766 765 757 742 742 746 742 740 738 737 737 736 736 736 736 737 737 738 739 740 741 741 742 744 744 744 744 744 743 743 742 742 741 741 741 740 740 740 741 741 741 742 742 742 743 743 744 744 745 746 747 749 750 750 751 752 753 753 754 755 756 757 757 758 758 759 759 760 761 762 763 764 764 765 766 766 767 767 768 768 768 767 767
765 764 762 767 771 771 773 774 771 777 786 781 774 770 761 751 743 739 740 738 737 740 738 736 735 733 733 733 733 735 736 737 738 740 740 740 742 743 743 744 743 743 742 741 740 740 739 739 739 738 738 738 739 739 739 740 740 741 741 741 742 742 743 744 745 746 747 747 748 749 750 750 751 752 753 754 754 755 755 756 756 757 758 758 759 760 760 761 762 762 762 763 763 763 763 762 762
762 767 766 768 767 761 762 762 758 764 775 777 774 769 754 737 728 729 729 726 728 733 733 732 730 728 729 729 730 733 735 736 737 739 739 740 742 742 742 743 742 741 741 740 740 739 739 738 738 737 736 736 736 737 737 738 738 739 739 739 740 741 741 742 743 744 744 744 745 746 747 748 748 749 750 751 751 752 752 753 754 754 754 755 755 755 756 756 757 757 757 757 757 757 757 756 757
744 750 749 752 755 757 764 766 757 756 764 766 767 766 748 726 718 718 718 718 719 721 725 726 725 725 727 728 729 732 734 736 736 738 739 740 740 741 741 741 741 740 739 739 739 739 738 738 737 736 736 735 734 734 735 735 736 737 737 738 738 739 739 740 741 741 741 742 743 743 744 745 745 746 747 748 748 748 749 749 750 750 750 750 750 750 751 751 752 752 752 752 752 752 751 751 752